Simultaneous Nadir Overpasses (SNOs) Predictions

Prediction of SNOs between AQUA and NOAA-19 Satellite Orbit:

Table of predicted SNOs for the next 14.0 days since TLE Epoch: 3/9/2018
Index Date (AQUA) Time (AQUA) Lat,Lon (AQUA) SZA (AQUA ) Date (NOAA-19) Time (NOAA-19) Lat,Lon (NOAA-19) SZA (NOAA-19 ) Distance(km) Time Diff (sec)
1 03/10/2018 14:38:39 80.84, -78.56 87.06 03/10/2018 14:38:24 80.86, -78.63 87.08 2.31 15
2 03/10/2018 15:28:02 -80.73, 90.41 93.18 03/10/2018 15:29:15 -80.90, 91.32 93.18 24.43 73
3 03/12/2018 20:12:26 -80.86, 17.73 93.79 03/12/2018 20:12:01 -80.85, 17.77 93.79 1.08 25
4 03/12/2018 21:01:52 80.86,-174.58 86.19 03/12/2018 21:03:03 80.86,-174.45 86.15 2.38 71
5 03/15/2018 01:46:11 80.85, 114.39 85.31 03/15/2018 01:45:43 80.85, 114.37 85.32 0.46 28
6 03/15/2018 02:35:38 -80.85, -77.96 94.72 03/15/2018 02:36:39 -80.86, -77.88 94.75 1.71 61
7 03/17/2018 07:19:57 -80.85,-149.02 95.60 03/17/2018 07:19:18 -80.85,-148.87 95.60 2.61 39
8 03/17/2018 08:09:23 80.85, 18.64 84.39 03/17/2018 08:10:22 80.86, 18.48 84.39 2.87 59
9 03/19/2018 12:53:42 80.85, -52.47 83.51 03/19/2018 12:53:01 80.85, -52.41 83.52 1.11 41
10 03/19/2018 13:43:09 -80.85, 115.20 96.51 03/19/2018 13:43:57 -80.85, 115.07 96.51 2.35 48
11 03/21/2018 18:27:28 -80.85, 44.07 97.38 03/21/2018 18:26:36 -80.85, 44.04 97.36 1.09 52




NCC Satellite Simultaneous Nadir Overpasses (SNOs) Prediction Service
